[[{"header":{"parameterUnit":"m.s-1","parameterCategory":1,"la1":30.2991,"la2":30.254,"lo1":-89.0895,"lo2":-89.0444,"dy":0.0017,"dx":0.0017,"nx":28,"ny":28,"refTime":"2025-08-17T21:00:00:Z","depth":0,"parameterNumber":2,"parameterNumberName":"U-component_of_WINDS"},"data":[0,0,0,0,0,0,0,0,0,0,0,0,0,0,0,0,0,0,0,0,0,0,0,0,0,0,0,0,0,0,0,0,0,0,0,0,0,0,0,0,0,0,0,0,0,0,0,0,0,0,0,0,0,0,0,0,0,0,-0.3931,-0.393,0,-0.3865,-0.3865,-0.3864,-0.3871,-0.3872,-0.3873,-0.3874,-0.3804,-0.3801,-0.3798,0,0,0,0,0,0,0,0,0,0,0,0,0,-0.406,-0.4058,-0.3931,-0.393,-0.3929,-0.3865,-0.3865,-0.3864,-0.3871,-0.3872,-0.3874,-0.3875,-0.3805,-0.3801,-0.3798,0,0,0,0,0,0,0,0,0,0,0,0,0,-0.4,-0.4057,-0.3931,-0.3926,-0.3924,-0.3866,-0.3865,-0.3863,-0.3871,-0.3872,-0.3874,-0.3875,-0.3806,-0.3802,-0.3797,-0.3739,0,0,-0.3784,-0.3782,0,0,0,0,0,0,0,0,-0.4004,-0.3996,-0.3927,-0.3926,-0.3924,-0.3878,-0.3884,-0.3822,-0.387,-0.3891,-0.3874,-0.3876,-0.3827,-0.3821,-0.3805,-0.3736,-0.3733,-0.3784,-0.3781,-0.3779,-0.3778,0,0,0,0,0,0,0,-0.4008,-0.3998,-0.3905,-0.3926,-0.3924,-0.3925,-0.3919,-0.3872,-0.3851,-0.3889,-0.389,-0.3882,-0.3827,-0.3809,-0.3804,-0.3732,-0.3784,-0.378,-0.3778,-0.3776,-0.3612,-0.361,0,0,0,0,0,0,-0.4014,-0.4002,-0.3907,-0.3903,-0.3969,-0.3922,-0.3914,-0.3891,-0.3851,-0.3847,-0.3881,-0.3883,-0.3816,-0.3809,-0.3801,-0.3731,-0.3779,-0.3775,-0.3773,-0.3614,-0.3611,-0.361,0,0,0,0,0,0,-0.4017,-0.4005,-0.391,-0.3953,-0.394,-0.3918,-0.3892,-0.3889,-0.3872,-0.3845,-0.3841,-0.3867,-0.3817,-0.3807,-0.3755,-0.3728,-0.3773,-0.377,-0.3616,-0.3613,-0.3611,-0.3589,0,0,0,0,0,0,-0.402,-0.4006,-0.3985,-0.3952,-0.3938,-0.3865,-0.3891,-0.3887,-0.3865,-0.3867,-0.3831,-0.3827,-0.3817,-0.3761,-0.3751,-0.3723,-0.3766,-0.3618,-0.3615,-0.3611,-0.3592,-0.3586,-0.3581,0,0,0,0,0,-0.4025,-0.398,-0.3983,-0.3972,-0.3911,-0.3864,-0.3856,-0.3847,-0.3863,-0.384,-0.3823,-0.3828,-0.3733,-0.3756,-0.3744,-0.3715,-0.362,-0.3615,-0.3612,-0.3595,-0.3587,-0.3581,0,0,0,0,0,0,-0.4009,-0.3976,-0.3979,-0.3923,-0.3896,-0.3865,-0.3837,-0.3839,-0.3806,-0.3809,-0.3799,-0.379,-0.3738,-0.3721,-0.3747,-0.3657,-0.3678,-0.3672,-0.367,-0.3662,-0.3657,-0.3662,-0.3763,0,0,0,0,0,-0.3999,-0.3965,-0.3937,-0.389,-0.3877,-0.3859,-0.3838,-0.3834,-0.3805,-0.3794,-0.3773,-0.3744,-0.3708,-0.3684,-0.3649,-0.359,-0.3582,-0.3564,-0.3558,-0.3554,-0.3548,-0.3516,-0.3508,-0.3596,-0.3596,-0.3597,0,0,-0.3978,-0.3956,-0.3934,-0.3887,-0.3866,-0.383,-0.3849,-0.381,-0.3783,-0.3787,-0.3737,-0.3721,-0.3688,-0.3632,-0.3606,-0.3617,-0.3522,-0.3549,-0.3546,-0.3542,-0.3511,-0.3503,-0.3495,-0.3594,-0.3594,-0.3595,0,0,-0.3921,-0.3901,-0.386,-0.3839,-0.3807,-0.3795,-0.3786,-0.3754,-0.3744,-0.3694,-0.3696,-0.3663,-0.3601,-0.3578,-0.3558,-0.3493,-0.3497,-0.3482,-0.3453,-0.3422,-0.3415,-0.3408,-0.3386,-0.3378,-0.3477,-0.3477,-0.3477,0,-0.3899,-0.3845,-0.3838,-0.3799,-0.3778,-0.3781,-0.3739,-0.3719,-0.3677,-0.3662,-0.3674,-0.3597,-0.3575,-0.3514,-0.3498,-0.3482,-0.347,-0.3486,-0.3417,-0.341,-0.3404,-0.3382,-0.3374,-0.3475,-0.3475,-0.3476,-0.3476,0,-0.3819,-0.3782,-0.3753,-0.3714,-0.3689,-0.3649,-0.3635,-0.3611,-0.3608,-0.3595,-0.3544,-0.3518,-0.3479,-0.3464,-0.346,-0.3402,-0.341,-0.3419,-0.3441,-0.3394,-0.3374,-0.3365,-0.3473,-0.3474,-0.3474,-0.3474,0,0,-0.375,-0.3708,-0.3698,-0.368,-0.3646,-0.3617,-0.3576,-0.3539,-0.3518,-0.3489,-0.3455,-0.3403,-0.3412,-0.3389,-0.3383,-0.3356,-0.3307,-0.3369,-0.3368,-0.3359,-0.3241,-0.3235,-0.3225,-0.3309,-0.3307,-0.3306,-0.3244,0,-0.369,-0.362,-0.3613,-0.355,-0.3515,-0.3518,-0.3483,-0.3458,-0.3445,-0.3413,-0.3398,-0.3362,-0.3376,-0.3363,-0.3336,-0.3319,-0.3283,-0.3323,-0.3276,-0.3275,-0.3285,-0.3214,-0.3207,-0.315,-0.3236,-0.3235,-0.3234,0,-0.3611,-0.3581,-0.3515,-0.3486,-0.3472,-0.344,-0.3406,-0.3375,-0.3347,-0.3339,-0.3314,-0.3313,-0.327,-0.3294,-0.3235,-0.3263,-0.3243,-0.3232,-0.3229,-0.3225,-0.3252,-0.3208,-0.3131,-0.3123,-0.3221,-0.3222,-0.3223,0,-0.3567,-0.3511,-0.3464,-0.3449,-0.3414,-0.3392,-0.3376,-0.3349,-0.3327,-0.3296,-0.3282,-0.3246,-0.3227,-0.3199,-0.3187,-0.3205,-0.313,-0.3152,-0.3122,-0.3122,-0.3106,-0.3107,-0.3025,-0.3093,-0.3093,-0.3093,-0.3093,0,-0.3501,-0.3461,-0.3444,-0.3416,-0.337,-0.3362,-0.3317,-0.3302,-0.3278,-0.3246,-0.3246,-0.3216,-0.3202,-0.317,-0.316,-0.3113,-0.3104,-0.3097,-0.3095,-0.3097,-0.3098,-0.3084,-0.3088,-0.3091,-0.3091,-0.3092,-0.3092,0,-0.3445,-0.3432,-0.3382,-0.3353,-0.3345,-0.3313,-0.3288,-0.326,-0.3248,-0.3208,-0.3197,-0.3178,-0.3139,-0.3125,-0.3078,-0.3072,-0.3018,-0.3019,-0.3028,-0.3028,-0.2998,-0.3002,-0.2905,-0.2892,-0.2968,-0.2967,-0.2967,0,-0.3404,-0.3373,-0.3342,-0.3321,-0.3305,-0.3271,-0.3249,-0.3239,-0.3216,-0.3182,-0.3158,-0.312,-0.309,-0.3029,-0.3009,-0.2974,-0.2974,-0.2943,-0.2968,-0.2972,-0.2974,-0.2976,-0.2973,-0.2938,-0.2937,-0.2936,-0.2936,0,-0.3332,-0.3328,-0.3297,-0.3264,-0.3238,-0.3211,-0.3185,-0.3167,-0.3154,-0.3128,-0.309,-0.3066,-0.3019,-0.2981,-0.2945,-0.2928,-0.2929,-0.2928,-0.2919,-0.2921,-0.2928,-0.2924,-0.3015,-0.293,-0.2931,-0.2931,-0.2931,-0.2932,-0.3282,-0.3255,-0.323,-0.3195,-0.3175,-0.315,-0.3123,-0.3108,-0.3076,-0.3038,-0.3034,-0.2993,-0.2965,-0.2916,-0.2898,-0.2865,-0.2873,-0.286,-0.2857,-0.2854,-0.2852,-0.2933,-0.2858,-0.2858,-0.2858,-0.2859,-0.2859,0,-0.3211,-0.3195,-0.3163,-0.3127,-0.31,-0.3106,-0.3077,-0.3054,-0.3018,-0.2993,-0.2963,-0.2919,-0.2883,-0.2861,-0.2825,-0.2803,-0.2803,-0.2794,-0.2795,-0.2792,-0.2847,-0.2858,-0.2795,-0.2795,-0.2795,-0.2795,-0.2795,-0.2795,-0.3171,-0.3126,-0.3118,-0.3063,-0.3047,-0.3008,-0.2991,-0.2968,-0.2948,-0.29,-0.287,-0.2857,-0.2833,-0.2795,-0.2762,-0.2757,-0.2743,-0.2734,-0.2729,-0.2781,-0.2788,-0.2794,-0.2805,-0.2731,-0.2731,-0.2676,-0.2676,-0.2676]},{"header":{"parameterUnit":"m.s-1","parameterCategory":1,"la1":30.2991,"la2":30.254,"lo1":-89.0895,"lo2":-89.0444,"dy":0.0017,"dx":0.0017,"nx":28,"ny":28,"refTime":"2025-08-17T21:00:00:Z","depth":0,"parameterNumber":3,"parameterNumberName":"V-component_of_WINDS"},"data":[0,0,0,0,0,0,0,0,0,0,0,0,0,0,0,0,0,0,0,0,0,0,0,0,0,0,0,0,0,0,0,0,0,0,0,0,0,0,0,0,0,0,0,0,0,0,0,0,0,0,0,0,0,0,0,0,0,0,-0.1749,-0.1749,0,-0.1813,-0.1813,-0.1814,-0.1825,-0.1825,-0.1824,-0.1824,-0.1892,-0.1894,-0.1896,0,0,0,0,0,0,0,0,0,0,0,0,0,-0.164,-0.1641,-0.1749,-0.1749,-0.175,-0.1813,-0.1814,-0.1814,-0.1825,-0.1825,-0.1824,-0.1824,-0.1891,-0.1894,-0.1897,0,0,0,0,0,0,0,0,0,0,0,0,0,-0.1694,-0.1642,-0.1748,-0.1763,-0.1765,-0.1812,-0.1814,-0.1815,-0.1826,-0.1825,-0.1824,-0.1823,-0.189,-0.1894,-0.1897,-0.1935,0,0,-0.1908,-0.1909,0,0,0,0,0,0,0,0,-0.1691,-0.1698,-0.176,-0.1762,-0.1765,-0.181,-0.18,-0.1855,-0.1826,-0.1803,-0.1824,-0.1823,-0.1866,-0.1871,-0.1885,-0.1938,-0.1941,-0.1908,-0.191,-0.1912,-0.1913,0,0,0,0,0,0,0,-0.1687,-0.1695,-0.1774,-0.1761,-0.1764,-0.1768,-0.1775,-0.1811,-0.1838,-0.1805,-0.1806,-0.1813,-0.1867,-0.1882,-0.1887,-0.1942,-0.1908,-0.1911,-0.1913,-0.1915,-0.2033,-0.2034,0,0,0,0,0,0,-0.168,-0.1692,-0.1772,-0.1776,-0.1725,-0.177,-0.1778,-0.1796,-0.1838,-0.1843,-0.1814,-0.1813,-0.1876,-0.1883,-0.1889,-0.1938,-0.1912,-0.1915,-0.1917,-0.2032,-0.2033,-0.2034,0,0,0,0,0,0,-0.1678,-0.1687,-0.1769,-0.1734,-0.1745,-0.1773,-0.1794,-0.1798,-0.1813,-0.1844,-0.185,-0.1824,-0.1876,-0.1884,-0.1924,-0.1941,-0.1916,-0.192,-0.203,-0.2032,-0.2033,-0.2036,0,0,0,0,0,0,-0.1674,-0.1686,-0.17,-0.1734,-0.1747,-0.1802,-0.1795,-0.18,-0.1819,-0.1819,-0.1855,-0.186,-0.1876,-0.1919,-0.1927,-0.1945,-0.1922,-0.2029,-0.2031,-0.2033,-0.2035,-0.2037,-0.204,0,0,0,0,0,-0.167,-0.1698,-0.17,-0.171,-0.1764,-0.1803,-0.181,-0.1827,-0.182,-0.1835,-0.1855,-0.1859,-0.1937,-0.1923,-0.1933,-0.1952,-0.2028,-0.2031,-0.2033,-0.2033,-0.2037,-0.204,0,0,0,0,0,0,-0.1665,-0.1703,-0.1706,-0.1745,-0.1771,-0.1805,-0.1824,-0.1829,-0.1858,-0.1857,-0.1877,-0.1885,-0.1924,-0.1942,-0.1925,-0.1992,-0.1982,-0.1987,-0.1979,-0.1983,-0.1986,-0.1982,-0.1925,0,0,0,0,0,-0.1668,-0.1695,-0.1727,-0.1759,-0.1771,-0.1795,-0.1813,-0.1823,-0.1851,-0.1862,-0.1885,-0.1913,-0.1944,-0.1964,-0.1994,-0.2036,-0.2046,-0.2055,-0.2057,-0.2059,-0.2064,-0.209,-0.2095,-0.2042,-0.2042,-0.2042,0,0,-0.1675,-0.1699,-0.1715,-0.1758,-0.1779,-0.1809,-0.1805,-0.1835,-0.1858,-0.1867,-0.1907,-0.1925,-0.1957,-0.1999,-0.2019,-0.2015,-0.2081,-0.2062,-0.2064,-0.2067,-0.2093,-0.2098,-0.2103,-0.2043,-0.2043,-0.2043,0,0,-0.1704,-0.1723,-0.1753,-0.1775,-0.1807,-0.1823,-0.183,-0.1864,-0.1876,-0.1916,-0.1924,-0.1952,-0.2004,-0.2028,-0.2046,-0.2085,-0.2091,-0.2095,-0.2109,-0.2135,-0.2139,-0.2143,-0.216,-0.2165,-0.2098,-0.2098,-0.2098,0,-0.1709,-0.1753,-0.1768,-0.1799,-0.1819,-0.1828,-0.186,-0.188,-0.192,-0.1935,-0.1929,-0.1997,-0.2019,-0.2068,-0.2077,-0.2091,-0.2102,-0.2091,-0.2137,-0.2141,-0.2145,-0.2161,-0.2167,-0.2099,-0.2099,-0.2099,-0.2099,0,-0.1759,-0.1789,-0.1809,-0.1848,-0.187,-0.1901,-0.1923,-0.1943,-0.1952,-0.1969,-0.2011,-0.2038,-0.2075,-0.2087,-0.2095,-0.2138,-0.2135,-0.2133,-0.2124,-0.215,-0.2166,-0.2172,-0.2099,-0.2099,-0.2099,-0.2099,0,0,-0.1786,-0.1834,-0.1841,-0.186,-0.1897,-0.1921,-0.1954,-0.1989,-0.2008,-0.2035,-0.2065,-0.2109,-0.2109,-0.213,-0.2141,-0.2163,-0.2196,-0.216,-0.2161,-0.2168,-0.2248,-0.2251,-0.2258,-0.2199,-0.2201,-0.2202,-0.2246,0,-0.182,-0.1878,-0.1894,-0.1943,-0.1973,-0.1982,-0.2011,-0.2038,-0.2055,-0.2084,-0.2103,-0.2135,-0.213,-0.2144,-0.2166,-0.2188,-0.2213,-0.2184,-0.2229,-0.2231,-0.2223,-0.2265,-0.2268,-0.2309,-0.2252,-0.2253,-0.2254,0,-0.1868,-0.1898,-0.195,-0.1985,-0.1998,-0.2024,-0.2059,-0.2086,-0.2117,-0.2128,-0.2152,-0.2162,-0.2198,-0.2186,-0.2238,-0.2218,-0.2237,-0.2251,-0.2253,-0.2259,-0.2246,-0.2276,-0.2322,-0.2329,-0.2263,-0.2262,-0.2262,0,-0.1886,-0.1939,-0.1977,-0.1993,-0.2034,-0.2052,-0.207,-0.2101,-0.2122,-0.2153,-0.2168,-0.2202,-0.2222,-0.2249,-0.2269,-0.2258,-0.232,-0.2308,-0.2332,-0.2332,-0.2347,-0.2346,-0.2399,-0.2354,-0.2354,-0.2354,-0.2354,0,-0.1925,-0.1957,-0.1986,-0.201,-0.2048,-0.2066,-0.2103,-0.2121,-0.2149,-0.2178,-0.2188,-0.2215,-0.2239,-0.227,-0.2285,-0.2327,-0.2335,-0.2347,-0.2351,-0.2348,-0.2347,-0.2362,-0.2361,-0.2356,-0.2356,-0.2355,-0.2355,0,-0.1951,-0.1972,-0.2015,-0.2051,-0.2061,-0.2087,-0.2119,-0.2144,-0.2161,-0.2198,-0.2208,-0.2236,-0.2274,-0.2295,-0.2342,-0.2353,-0.2401,-0.2402,-0.239,-0.2393,-0.2416,-0.2415,-0.2484,-0.2495,-0.244,-0.244,-0.2441,0,-0.1976,-0.2001,-0.204,-0.206,-0.2079,-0.2111,-0.2133,-0.2152,-0.2175,-0.2214,-0.2234,-0.2272,-0.2304,-0.2363,-0.2389,-0.2426,-0.243,-0.2452,-0.2436,-0.2432,-0.2434,-0.2433,-0.2437,-0.2455,-0.2455,-0.2456,-0.2456,0,-0.2018,-0.2027,-0.2058,-0.2093,-0.2119,-0.2148,-0.2177,-0.2193,-0.2218,-0.2243,-0.2281,-0.2306,-0.2355,-0.2393,-0.2432,-0.2452,-0.246,-0.2461,-0.2469,-0.2467,-0.246,-0.2467,-0.24,-0.246,-0.2459,-0.2459,-0.2459,-0.2459,-0.2046,-0.207,-0.2102,-0.2137,-0.216,-0.2187,-0.2213,-0.2235,-0.2267,-0.2308,-0.2317,-0.2358,-0.2391,-0.2445,-0.2466,-0.2499,-0.2496,-0.2507,-0.251,-0.2513,-0.2515,-0.2452,-0.2506,-0.2506,-0.2506,-0.2506,-0.2506,0,-0.2091,-0.2112,-0.2144,-0.2184,-0.2212,-0.2215,-0.2248,-0.2272,-0.2308,-0.2337,-0.2368,-0.2414,-0.2452,-0.2481,-0.252,-0.2541,-0.2546,-0.2551,-0.2551,-0.2557,-0.2515,-0.2505,-0.2547,-0.2547,-0.2547,-0.2547,-0.2547,-0.2547,-0.2117,-0.2159,-0.2173,-0.2227,-0.2249,-0.2289,-0.2308,-0.2334,-0.2358,-0.2408,-0.244,-0.2458,-0.2488,-0.253,-0.2566,-0.2573,-0.2589,-0.2594,-0.2603,-0.2563,-0.2559,-0.2555,-0.2546,-0.2597,-0.2597,-0.2642,-0.2643,-0.2643]}]]